This demonstration page uses our WeatherBlox Daily Observations layout. Learn more.

Left ArrowRight Arrow

53.62937, 11.41316

Hourly Observations for June 14, 2019

Temp ( °F °C ) Dew Point ( °F °C ) Humidity (%) Winds ( mph kmh ) Pressure ( in mb ) Visibility ( mi km ) Precip ( " mm )
6:50 am 06:50 Mostly Sunny 59 15 55 13 88 88 SSE 5 7 30.03 1017 7 11 N/A
7:20 am 07:20 Mostly Sunny 61 16 55 13 83 83 SSE 6 9 30.03 1017 7 11 N/A
7:50 am 07:50 Mostly Sunny 63 17 57 14 83 83 SSE 7 11 30.03 1017 7 11 N/A
8:20 am 08:20 Mostly Sunny 66 19 57 14 73 73 SSE 5 7 30.03 1017 7 11 N/A
8:50 am 08:50 Mostly Sunny 66 19 55 13 68 68 SSE 5 7 30.03 1017 7 11 N/A
9:20 am 09:20 Mostly Sunny 68 20 54 12 60 60 S 5 7 30.03 1017 7 11 N/A
9:50 am 09:50 Mostly Sunny 70 21 54 12 57 57 SE 5 7 30.06 1018 7 11 N/A
10:20 am 10:20 Mostly Sunny 72 22 54 12 53 53 SSE 7 11 30.06 1018 7 11 N/A
10:50 am 10:50 Mostly Sunny 72 22 57 14 61 61 SE 9 15 30.03 1017 7 11 N/A
11:20 am 11:20 Mostly Sunny 73 23 55 13 53 53 SE 9 15 30.03 1017 7 11 N/A
11:50 am 11:50 Mostly Sunny 73 23 54 12 50 50 SE 12 19 30.03 1017 7 11 N/A
12:20 pm 12:20 Mostly Sunny 75 24 54 12 47 47 SE 10 17 30.03 1017 7 11 N/A
12:50 pm 12:50 Mostly Sunny 77 25 54 12 44 44 SE 9 15 30.03 1017 7 11 N/A
1:20 pm 13:20 Mostly Sunny 77 25 54 12 44 44 SE 12 19 30.00 1016 7 11 N/A
1:50 pm 13:50 Mostly Sunny 79 26 54 12 42 42 SE 10 17 30.00 1016 7 11 N/A
2:20 pm 14:20 Mostly Sunny 81 27 54 12 39 39 SE 10 17 30.00 1016 7 11 N/A
2:50 pm 14:50 Mostly Sunny 79 26 52 11 39 39 SSE 10 17 30.00 1016 7 11 N/A
3:20 pm 15:20 Partly Cloudy with Showers Nearby 79 26 52 11 39 39 SSE 9 15 30.00 1016 30 48 N/A
3:50 pm 15:50 Partly Cloudy with Showers Nearby 79 26 54 12 42 42 SE 8 13 30.00 1016 30 48 N/A
4:20 pm 16:20 Partly Cloudy with Showers Nearby 81 27 54 12 39 39 SSE 7 11 29.97 1015 30 48 N/A
4:50 pm 16:50 Partly Cloudy with Showers Nearby 81 27 55 13 42 42 SE 8 13 29.97 1015 30 48 N/A
5:20 pm 17:20 Partly Cloudy with Showers Nearby 79 26 54 12 42 42 SE 7 11 29.97 1015 30 48 N/A
5:50 pm 17:50 Partly Cloudy with Nearby Thunderstorms 75 24 59 15 57 57 VRB 1 2 29.97 1015 30 48 N/A
6:20 pm 18:20 Partly Cloudy with Light Showers 70 21 57 14 64 64 W 8 13 30.00 1016 30 48 N/A
6:50 pm 18:50 Partly Cloudy with Light Showers 68 20 59 15 73 73 SW 12 19 30.00 1016 30 48 N/A
7:20 pm 19:20 Partly Cloudy with Showers Nearby 70 21 59 15 69 69 E 5 7 29.97 1015 30 48 N/A
7:50 pm 19:50 Mostly Sunny 70 21 63 17 78 78 VRB 2 4 29.97 1015 7 11 N/A
8:20 pm 20:20 Mostly Sunny 68 20 63 17 83 83 VRB 1 2 29.97 1015 7 11 N/A
8:50 pm 20:50 Mostly Sunny 66 19 63 17 88 88 VRB 1 2 29.97 1015 7 11 N/A

Powered by AerisWeather